Helicity
-7 -7 -6 -8 -6 -9 -2 7 22 21 26 50 62 69 63 65 72 96 112 107 104 132
-3 -5 -4 2 8 13 8 6 15 28 32 40 45 60 63 65 70 80 94 102 98 129
9 14 8 -3 -4 6 12 15 23 29 29 35 35 50 72 69 59 65 73 95 100 107
22 17 14 9 5 8 10 24 32 37 40 42 39 45 59 74 68 68 69 74 88 88
26 29 24 24 33 36 28 35 34 39 41 50 53 54 54 67 70 67 76 90 93 80
39 37 40 46 42 35 32 34 38 41 41 48 46 59 60 65 76 70 72 85 91 83
42 44 44 40 34 27 22 24 28 36 37 41 41 52 61 72 80 80 74 61 86 80
47 43 37 30 23 18 21 29 38 36 41 45 41 53 63 68 73 65 67 19 6 101
46 42 38 32 26 29 40 54 57 53 48 47 56 37 42 63 61 50 53 37 34 53
48 40 39 41 41 48 57 64 76 80 71 58 54 43 52 58 52 34 46 29 56 13
52 48 45 45 53 68 83 85 84 83 77 58 59 56 67 62 29 7 6 35 32 69
60 49 47 47 52 94 89 91 87 63 63 73 65 64 84 67 3 -5 -12 0 68 54
65 62 59 60 43 73 72 74 78 93 87 74 49 66 111 68 7 -7 28 14 74 112
84 78 71 51 43 58 82 79 93 87 84 47 34 29 56 58 13 36 62 61 83 125
Wind_Speed
84 85 87 86 85 83 81 79 78 75 71 72 71 69 66 64 61 60 61 62 58 54
83 83 84 84 82 81 80 80 79 77 74 71 72 70 68 66 64 58 59 59 59 58
85 82 83 84 83 82 82 82 82 79 75 73 72 69 70 69 66 61 57 59 61 60
87 84 84 83 82 81 81 81 81 78 78 75 74 69 70 71 70 66 65 65 65 66
88 85 85 83 83 81 82 81 81 80 79 78 77 72 72 74 72 72 72 71 63 65
88 86 84 83 83 82 82 81 80 79 80 80 78 74 73 75 76 75 73 71 68 64
87 86 85 84 83 83 83 84 82 81 81 81 81 76 78 79 78 76 74 71 71 61
85 84 84 84 84 84 84 84 83 83 82 80 79 74 77 79 77 77 76 74 72 52
84 83 83 83 84 84 84 83 82 81 80 78 72 73 82 84 78 77 75 72 79 70
81 83 84 85 85 85 83 81 79 77 76 77 73 76 84 82 79 81 81 83 84 90
80 83 83 82 81 82 80 78 77 76 76 76 76 82 84 83 83 84 84 82 84 83
82 85 83 83 84 80 78 76 76 76 75 76 79 79 77 78 78 79 79 78 81 80
78 78 80 80 83 79 75 75 75 74 73 77 74 68 67 67 72 72 71 69 70 44
74 72 70 78 78 77 75 73 71 73 71 66 62 61 60 59 56 60 58 52 33 25
Wind_Direction
321 317 314 312 309 306 303 302 301 302 303 302 302 300 300 295 291 289 286 283 281 280
321 319 315 313 311 309 304 300 300 300 301 302 300 299 299 298 292 289 287 285 282 278
320 320 316 311 309 306 302 299 299 299 299 299 299 298 297 296 294 290 289 285 281 278
319 318 315 312 310 307 304 302 300 299 298 297 298 298 296 294 294 290 287 284 279 277
318 317 314 313 311 310 306 305 302 299 297 296 296 296 295 292 292 288 285 285 281 277
318 317 317 316 313 310 307 305 304 301 297 296 295 294 294 292 289 288 284 285 282 278
318 317 316 314 312 310 308 305 302 300 298 295 293 291 291 289 287 287 285 283 283 277
321 319 317 315 312 310 308 305 303 300 299 296 293 291 290 289 286 285 284 282 280 278
323 322 321 319 317 314 311 309 305 302 301 300 296 292 290 286 284 284 282 281 271 273
328 326 324 322 320 316 313 311 308 305 303 298 295 292 288 282 278 276 272 267 262 249
331 329 327 325 323 319 315 311 307 302 300 295 292 288 279 268 264 264 261 261 247 244
333 330 328 325 322 320 314 309 301 295 293 290 286 278 263 258 257 252 250 244 240 235
336 333 330 327 321 316 312 305 293 292 294 282 270 263 260 261 247 244 240 242 246 254
340 338 336 329 321 307 302 299 298 296 279 267 260 257 263 265 258 244 240 242 250 251